Regional Weather Roundup
Issued by NWS

Home | Current Version | Previous Version | Graphics & Text | Print | Product List | Glossary On
Versions: 1 2 3 4 5 6 7 8 9 10 11 12 13 14 15 16 17 18 19 20 21 22 23 24 25 26 27 28 29 30 31 32 33 34 35 36 37 38 39 40 41 42 43 44 45 46 47 48 49 50
000
ASUS44 KMEG 251310
RWRTN
TENNESSEE HOURLY STATE WEATHER ROUNDUP
NATIONAL WEATHER SERVICE MEMPHIS TN
800 AM CDT THU MAY 25 2017

TNZ002-004-019-021-049-052-054-088>092-251400-
WEST TENNESSEE

CITY           SKY/WX    TMP DP  RH WIND       PRES   REMARKS
MEMPHIS INTL   SUNNY     59  54  83 W9        29.78R
NWS MEMPHIS      N/A     57 N/A N/A MISG        N/A
JACKSON        SUNNY     58  54  86 W9        29.75R
DYERSBURG        N/A    N/A N/A N/A MISG        N/A
COVINGTON      SUNNY     59  54  82 NW8       29.76R
UNION CITY     SUNNY     59  54  82 W8G14     29.72R
BOLIVAR        SUNNY     59  54  82 VRB3      29.74S
PARIS          SUNNY     57  54  88 W8        29.70R
HUNTINGDON     SUNNY     57  54  88 W9        29.72R
LEXINGTON      SUNNY     57  52  82 MISG      29.74R
SELMER         SUNNY     55  52  88 W7        29.75R
SAVANNAH       SUNNY     57  54  88 W6        29.75R
$$

TNZ008-025-027-028-033-062-065-066-251400-
NORTH MIDDLE TENNESSEE

CITY           SKY/WX    TMP DP  RH WIND       PRES   REMARKS
NASHVILLE      CLOUDY    56  52  86 W7        29.69R
PORTLAND       CLOUDY    57  54  88 W13       29.65R
CLARKSVILLE    CLOUDY    57  52  83 W10       29.67R
SMYRNA         CLOUDY    56  52  86 W10       29.70R
COOKEVILLE     CLOUDY    55  52  88 SW10      29.67R
GALLATIN       PTSUNNY   57  54  88 SW8       29.69R
CROSSVILLE     CLOUDY    53  49  86 W12G20    29.68R
$$

TNZ061-075-076-078-094-096-097-251400-
SOUTH MIDDLE TENNESSEE

CITY           SKY/WX    TMP DP  RH WIND       PRES   REMARKS
FAYETTEVILLE   PTSUNNY   55  54  94 SW7       29.73R
TULLAHOMA      MOSUNNY   54  52  94 SW7       29.72R
MCMINNVILLE    PTSUNNY   55  54  94 SW10      29.70R
COLUMBIA       SUNNY     57  52  82 SW9       29.70R
SHELBYVILLE    PTSUNNY   54  52  94 W8        29.71R
$$

TNZ017-018-042-046-047-251400-
NORTHEAST TENNESSEE

CITY           SKY/WX    TMP DP  RH WIND       PRES   REMARKS
TRI CITIES     CLOUDY    54  50  86 SW7       29.64S
ELIZABETHTON   CLOUDY    55  50  82 W9        29.65R
$$

TNZ012-013-036-069-073-074-251400-
CENTRAL EAST TENNESSEE

CITY           SKY/WX    TMP DP  RH WIND       PRES   REMARKS
KNOXVILLE      CLOUDY    57  53  86 SW13      29.66R
OAK RIDGE      CLOUDY    58  52  80 SW6       29.67R
DOWNTOWN KNOXV CLOUDY    59  55  88 VRB6      29.66S
GATLINBURG     PTSUNNY   55  48  76 SW15      29.65S
MORRISTOWN     CLOUDY    55  52  88 SW14      29.63R
JACKSBORO      CLOUDY    57  52  82 SW9       29.65S
$$

TNZ083-085-099-251400-
SOUTHEAST TENNESSEE

CITY           SKY/WX    TMP DP  RH WIND       PRES   REMARKS
CHATTANOOGA    MOSUNNY   60  52  74 SW8       29.71R
$$

SKY/WX REPORTED AS FAIR MEANS FEW OR NO CLOUDS BELOW
12 THOUSAND FEET.




USA.gov is the U.S. government's official web portal to all federal, state and local government web resources and services.